Time,TemperatureF,DewpointF,PressureIn,WindDirection,WindDirectionDegrees,WindSpeedMPH,WindSpeedGustMPH,Humidity,HourlyPrecipIn,Conditions,Clouds,dailyrainin,SoftwareType,DateUTC
2014-01-01 00:01:00,17.0,7.3,30.22,North,360,10.6,16.1,65,0.00,OVC,,0.00,WeatherDisplay:10.37,2014-01-01 05:01:00,
2014-01-01 00:06:00,17.1,7.4,30.22,North,360,6.3,9.0,65,0.00,OVC,,0.00,WeatherDisplay:10.37,2014-01-01 05:06:00,
2014-01-01 00:11:00,17.2,7.5,30.23,North,360,11.6,15.0,65,0.00,OVC,,0.00,WeatherDisplay:10.37,2014-01-01 05:11:00,
2014-01-01 00:16:00,17.3,7.6,30.23,North,360,11.6,19.0,65,0.00,OVC,,0.00,WeatherDisplay:10.37,2014-01-01 05:16:00,
2014-01-01 00:21:00,17.4,7.7,30.23,North,360,7.5,11.5,65,0.00,OVC,,0.00,WeatherDisplay:10.37,2014-01-01 05:21:00,
2014-01-01 00:26:00,17.5,7.8,30.23,North,360,10.5,15.0,65,0.00,OVC,,0.00,WeatherDisplay:10.37,2014-01-01 05:26:00,
2014-01-01 00:31:00,17.5,7.8,30.23,North,360,9.2,13.8,65,0.00,OVC,,0.00,WeatherDisplay:10.37,2014-01-01 05:31:00,
2014-01-01 00:36:00,17.6,7.9,30.23,North,360,7.3,11.5,65,0.00,OVC,,0.00,WeatherDisplay:10.37,2014-01-01 05:36:00,
2014-01-01 00:41:00,17.6,7.9,30.23,North,360,9.6,11.5,65,0.00,OVC,,0.00,WeatherDisplay:10.37,2014-01-01 05:41:00,
2014-01-01 00:46:00,17.6,7.9,30.23,North,360,11.1,15.0,65,0.00,OVC,,0.00,WeatherDisplay:10.37,2014-01-01 05:46:00,
2014-01-01 00:51:00,17.7,8.0,30.23,North,360,8.8,13.0,65,0.00,OVC,,0.00,WeatherDisplay:10.37,2014-01-01 05:51:00,
2014-01-01 00:56:00,17.7,8.0,30.23,North,360,12.1,19.6,65,0.00,OVC,,0.00,WeatherDisplay:10.37,2014-01-01 05:56:00,
2014-01-01 01:01:00,17.7,8.3,30.23,North,360,8.9,15.0,66,0.00,OVC,,0.00,WeatherDisplay:10.37,2014-01-01 06:01:00,
2014-01-01 01:06:00,17.8,8.4,30.23,North,360,9.4,18.4,66,0.00,OVC,,0.00,WeatherDisplay:10.37,2014-01-01 06:06:00,
2014-01-01 01:11:00,17.8,8.4,30.23,North,360,10.9,14.0,66,0.00,OVC,,0.00,WeatherDisplay:10.37,2014-01-01 06:11:00,
2014-01-01 01:14:00,17.8,8.4,30.23,North,360,9.6,13.0,66,0.00,OVC,,0.00,WeatherDisplay:10.37,2014-01-01 06:14:00,
2014-01-01 01:19:00,17.8,8.4,30.24,North,360,8.9,13.8,66,0.00,OVC,,0.00,WeatherDisplay:10.37,2014-01-01 06:19:00,
2014-01-01 01:24:00,17.8,8.4,30.24,North,360,7.8,15.0,66,0.00,OVC,,0.00,WeatherDisplay:10.37,2014-01-01 06:24:00,
2014-01-01 01:29:00,17.9,8.5,30.24,North,360,7.7,17.3,66,0.00,OVC,,0.00,WeatherDisplay:10.37,2014-01-01 06:29:00,
2014-01-01 01:34:00,18.0,8.6,30.24,North,360,5.5,16.1,66,0.00,OVC,,0.00,WeatherDisplay:10.37,2014-01-01 06:34:00,
2014-01-01 01:39:00,18.0,8.9,30.24,North,360,8.9,15.0,67,0.00,OVC,,0.00,WeatherDisplay:10.37,2014-01-01 06:39:00,
2014-01-01 01:44:00,18.0,8.9,30.24,North,360,8.0,11.5,67,0.00,OVC,,0.00,WeatherDisplay:10.37,2014-01-01 06:44:00,
2014-01-01 01:49:00,18.0,8.9,30.25,North,360,9.3,12.7,67,0.00,OVC,,0.00,WeatherDisplay:10.37,2014-01-01 06:49:00,
2014-01-01 01:54:00,18.0,8.9,30.25,North,360,10.6,17.3,67,0.00,OVC,,0.00,WeatherDisplay:10.37,2014-01-01 06:54:00,
2014-01-01 01:55:00,18.1,9.0,30.25,North,360,11.2,17.3,67,0.00,OVC,,0.00,WeatherDisplay:10.37,2014-01-01 06:55:00,
2014-01-01 02:00:00,18.1,9.0,30.25,North,360,11.3,19.6,67,0.00,OVC,,0.00,WeatherDisplay:10.37,2014-01-01 07:00:00,
2014-01-01 02:05:00,18.1,9.3,30.25,North,360,12.5,16.1,68,0.00,OVC,,0.00,WeatherDisplay:10.37,2014-01-01 07:05:00,
2014-01-01 02:10:00,18.1,9.3,30.25,North,360,10.5,17.3,68,0.00,OVC,,0.00,WeatherDisplay:10.37,2014-01-01 07:10:00,
2014-01-01 02:15:00,18.2,9.4,30.25,North,360,10.1,19.6,68,0.00,OVC,,0.00,WeatherDisplay:10.37,2014-01-01 07:15:00,
2014-01-01 02:20:00,18.2,9.8,30.26,North,360,11.2,24.2,69,0.00,OVC,,0.00,WeatherDisplay:10.37,2014-01-01 07:20:00,
2014-01-01 02:22:00,18.2,9.8,30.25,North,360,8.7,13.8,69,0.00,OVC,,0.00,WeatherDisplay:10.37,2014-01-01 07:22:00,
2014-01-01 02:27:00,18.2,10.1,30.26,North,360,8.8,13.8,70,0.00,OVC,,0.00,WeatherDisplay:10.37,2014-01-01 07:27:00,
2014-01-01 02:32:00,18.1,10.3,30.26,North,360,11.4,15.0,71,0.00,OVC,,0.00,WeatherDisplay:10.37,2014-01-01 07:32:00,
2014-01-01 02:37:00,18.2,10.1,30.26,North,360,11.3,18.0,70,0.00,OVC,,0.00,WeatherDisplay:10.37,2014-01-01 07:37:00,
2014-01-01 02:42:00,18.3,10.5,30.26,North,360,9.8,17.3,71,0.00,OVC,,0.00,WeatherDisplay:10.37,2014-01-01 07:42:00,
2014-01-01 02:47:00,18.3,10.5,30.26,North,360,7.5,11.5,71,0.00,OVC,,0.00,WeatherDisplay:10.37,2014-01-01 07:47:00,
2014-01-01 02:52:00,18.3,10.2,30.26,North,360,9.4,12.0,70,0.00,OVC,,0.00,WeatherDisplay:10.37,2014-01-01 07:52:00,
2014-01-01 02:57:00,18.4,10.3,30.26,North,360,10.0,13.8,70,0.00,OVC,,0.00,WeatherDisplay:10.37,2014-01-01 07:57:00,
2014-01-01 03:00:00,18.4,10.3,30.26,North,360,6.2,11.5,70,0.00,OVC,,0.00,WeatherDisplay:10.37,2014-01-01 08:00:00,
2014-01-01 03:05:00,18.4,10.3,30.27,North,360,6.4,10.4,70,0.00,OVC,,0.00,WeatherDisplay:10.37,2014-01-01 08:05:00,
2014-01-01 03:10:00,18.4,10.3,30.26,North,360,7.1,13.0,70,0.00,OVC,,0.00,WeatherDisplay:10.37,2014-01-01 08:10:00,
2014-01-01 03:15:00,18.4,10.0,30.26,North,360,12.5,18.4,69,0.00,OVC,,0.00,WeatherDisplay:10.37,2014-01-01 08:15:00,
2014-01-01 03:20:00,18.5,10.1,30.27,North,360,8.1,13.8,69,0.00,OVC,,0.00,WeatherDisplay:10.37,2014-01-01 08:20:00,
2014-01-01 03:25:00,18.4,10.0,30.26,North,360,5.4,12.0,69,0.00,OVC,,0.00,WeatherDisplay:10.37,2014-01-01 08:25:00,
2014-01-01 03:30:00,18.4,10.0,30.26,North,360,4.1,10.0,69,0.00,OVC,,0.00,WeatherDisplay:10.37,2014-01-01 08:30:00,
2014-01-01 03:35:00,18.4,10.3,30.26,North,360,5.2,8.1,70,0.00,OVC,,0.00,WeatherDisplay:10.37,2014-01-01 08:35:00,
2014-01-01 03:40:00,18.4,10.0,30.26,North,360,6.5,11.5,69,0.00,OVC,,0.00,WeatherDisplay:10.37,2014-01-01 08:40:00,
2014-01-01 03:45:00,18.4,10.0,30.26,North,360,11.4,15.0,69,0.00,OVC,,0.00,WeatherDisplay:10.37,2014-01-01 08:45:00,
2014-01-01 03:50:00,18.5,10.1,30.26,North,360,5.5,9.2,69,0.00,OVC,,0.00,WeatherDisplay:10.37,2014-01-01 08:50:00,
2014-01-01 03:55:00,18.4,10.0,30.27,North,360,7.2,11.5,69,0.00,OVC,,0.00,WeatherDisplay:10.37,2014-01-01 08:55:00,
2014-01-01 04:00:00,18.4,10.0,30.27,North,360,6.9,11.0,69,0.00,OVC,,0.00,WeatherDisplay:10.37,2014-01-01 09:00:00,
2014-01-01 04:05:00,18.4,10.0,30.27,North,360,10.3,12.7,69,0.00,BKN,,0.00,WeatherDisplay:10.37,2014-01-01 09:05:00,
2014-01-01 04:10:00,18.5,10.1,30.27,North,360,8.0,13.0,69,0.00,BKN,,0.00,WeatherDisplay:10.37,2014-01-01 09:10:00,
2014-01-01 04:15:00,18.6,10.2,30.28,North,360,9.9,15.0,69,0.00,BKN,,0.00,WeatherDisplay:10.37,2014-01-01 09:15:00,
2014-01-01 04:20:00,18.6,10.2,30.27,North,360,6.5,8.1,69,0.00,BKN,,0.00,WeatherDisplay:10.37,2014-01-01 09:20:00,
2014-01-01 04:25:00,18.6,10.2,30.28,North,360,6.6,11.5,69,0.00,BKN,,0.00,WeatherDisplay:10.37,2014-01-01 09:25:00,
2014-01-01 04:30:00,18.5,10.1,30.28,North,360,8.9,13.8,69,0.00,BKN,,0.00,WeatherDisplay:10.37,2014-01-01 09:30:00,
2014-01-01 04:35:00,18.6,10.2,30.28,North,360,9.1,12.7,69,0.00,BKN,,0.00,WeatherDisplay:10.37,2014-01-01 09:35:00,
2014-01-01 04:40:00,18.6,10.2,30.28,North,360,8.1,11.5,69,0.00,BKN,,0.00,WeatherDisplay:10.37,2014-01-01 09:40:00,
2014-01-01 04:45:00,18.6,10.2,30.29,North,360,8.8,13.8,69,0.00,BKN,,0.00,WeatherDisplay:10.37,2014-01-01 09:45:00,
2014-01-01 04:50:00,18.7,10.2,30.29,North,360,6.0,9.2,69,0.00,BKN,,0.00,WeatherDisplay:10.37,2014-01-01 09:50:00,
2014-01-01 04:55:00,18.7,10.2,30.29,North,360,6.2,11.5,69,0.00,BKN,,0.00,WeatherDisplay:10.37,2014-01-01 09:55:00,
2014-01-01 05:00:00,18.7,10.2,30.29,North,360,8.6,11.5,69,0.00,BKN,,0.00,WeatherDisplay:10.37,2014-01-01 10:00:00,
2014-01-01 05:05:00,18.7,10.2,30.29,North,360,8.6,16.1,69,0.00,OVC,,0.00,WeatherDisplay:10.37,2014-01-01 10:05:00,
2014-01-01 05:10:00,18.7,10.6,30.29,North,360,6.4,9.2,70,0.00,OVC,,0.00,WeatherDisplay:10.37,2014-01-01 10:10:00,
2014-01-01 05:15:00,18.7,10.2,30.29,North,360,8.2,13.8,69,0.00,OVC,,0.00,WeatherDisplay:10.37,2014-01-01 10:15:00,
2014-01-01 05:20:00,18.7,10.2,30.29,North,360,7.2,11.5,69,0.00,OVC,,0.00,WeatherDisplay:10.37,2014-01-01 10:20:00,
2014-01-01 05:25:00,18.8,10.7,30.29,North,360,7.4,11.5,70,0.00,OVC,,0.00,WeatherDisplay:10.37,2014-01-01 10:25:00,
2014-01-01 05:30:00,18.8,10.7,30.29,North,360,6.6,10.0,70,0.00,OVC,,0.00,WeatherDisplay:10.37,2014-01-01 10:30:00,
2014-01-01 05:35:00,18.9,10.8,30.29,North,360,11.9,13.8,70,0.00,OVC,,0.00,WeatherDisplay:10.37,2014-01-01 10:35:00,
2014-01-01 05:40:00,18.9,10.8,30.29,North,360,8.8,12.7,70,0.00,OVC,,0.00,WeatherDisplay:10.37,2014-01-01 10:40:00,
2014-01-01 05:45:00,18.9,10.8,30.29,North,360,9.9,15.0,70,0.00,OVC,,0.00,WeatherDisplay:10.37,2014-01-01 10:45:00,
2014-01-01 05:50:00,18.8,10.7,30.29,North,360,8.7,15.0,70,0.00,OVC,,0.00,WeatherDisplay:10.37,2014-01-01 10:50:00,
2014-01-01 05:55:00,18.8,11.0,30.29,North,360,8.1,13.8,71,0.00,OVC,,0.00,WeatherDisplay:10.37,2014-01-01 10:55:00,
2014-01-01 06:00:00,18.8,10.7,30.29,North,360,7.4,10.4,70,0.00,OVC,,0.00,WeatherDisplay:10.37,2014-01-01 11:00:00,
2014-01-01 06:05:00,18.8,10.7,30.29,North,360,8.6,12.7,70,0.00,OVC,,0.00,WeatherDisplay:10.37,2014-01-01 11:05:00,
2014-01-01 06:10:00,18.8,10.7,30.30,North,360,6.1,11.5,70,0.00,OVC,,0.00,WeatherDisplay:10.37,2014-01-01 11:10:00,
2014-01-01 06:15:00,18.8,10.7,30.30,North,360,7.6,15.0,70,0.00,OVC,,0.00,WeatherDisplay:10.37,2014-01-01 11:15:00,
2014-01-01 06:20:00,18.8,10.7,30.30,North,360,7.5,18.4,70,0.00,OVC,,0.00,WeatherDisplay:10.37,2014-01-01 11:20:00,
2014-01-01 06:25:00,18.8,10.7,30.30,North,360,8.4,15.0,70,0.00,OVC,,0.00,WeatherDisplay:10.37,2014-01-01 11:25:00,
2014-01-01 06:30:00,18.8,10.7,30.30,North,360,7.5,11.5,70,0.00,OVC,,0.00,WeatherDisplay:10.37,2014-01-01 11:30:00,
2014-01-01 06:35:00,18.7,10.6,30.30,North,360,6.6,11.5,70,0.00,OVC,,0.00,WeatherDisplay:10.37,2014-01-01 11:35:00,
2014-01-01 06:40:00,18.8,10.7,30.30,North,360,7.0,11.5,70,0.00,OVC,,0.00,WeatherDisplay:10.37,2014-01-01 11:40:00,
2014-01-01 06:45:00,18.7,10.6,30.31,North,360,11.4,16.1,70,0.00,OVC,,0.00,WeatherDisplay:10.37,2014-01-01 11:45:00,
2014-01-01 06:50:00,18.7,10.2,30.31,North,360,6.5,15.0,69,0.00,OVC,,0.00,WeatherDisplay:10.37,2014-01-01 11:50:00,
2014-01-01 06:55:00,18.7,10.2,30.30,North,360,10.8,10.8,69,0.00,OVC,,0.00,WeatherDisplay:10.37,2014-01-01 11:55:00,
2014-01-01 07:00:00,18.7,10.2,30.31,North,360,5.9,11.5,69,0.00,OVC,,0.00,WeatherDisplay:10.37,2014-01-01 12:00:00,
2014-01-01 07:05:00,18.7,10.2,30.31,North,360,7.8,9.2,69,0.00,OVC,,0.00,WeatherDisplay:10.37,2014-01-01 12:05:00,
2014-01-01 07:10:00,18.7,10.2,30.31,North,360,4.8,8.1,69,0.00,OVC,,0.00,WeatherDisplay:10.37,2014-01-01 12:10:00,
2014-01-01 07:15:00,18.6,10.2,30.31,North,360,4.3,9.2,69,0.00,OVC,,0.00,WeatherDisplay:10.37,2014-01-01 12:15:00,
2014-01-01 07:20:00,18.6,10.2,30.31,North,360,6.9,8.1,69,0.00,OVC,,0.00,WeatherDisplay:10.37,2014-01-01 12:20:00,
2014-01-01 07:25:00,18.6,10.2,30.32,North,360,6.2,6.9,69,0.00,OVC,,0.00,WeatherDisplay:10.37,2014-01-01 12:25:00,
2014-01-01 07:30:00,18.6,10.2,30.32,North,360,5.4,8.1,69,0.00,OVC,,0.00,WeatherDisplay:10.37,2014-01-01 12:30:00,
2014-01-01 07:35:00,18.6,10.2,30.32,North,360,6.8,8.1,69,0.00,OVC,,0.00,WeatherDisplay:10.37,2014-01-01 12:35:00,
2014-01-01 07:40:00,18.6,9.8,30.32,North,360,7.7,16.1,68,0.00,OVC,,0.00,WeatherDisplay:10.37,2014-01-01 12:40:00,
2014-01-01 07:45:00,18.6,9.8,30.33,North,360,7.6,11.5,68,0.00,OVC,,0.00,WeatherDisplay:10.37,2014-01-01 12:45:00,
2014-01-01 07:50:00,18.6,10.5,30.33,North,360,7.6,14.0,70,0.00,OVC,,0.00,WeatherDisplay:10.37,2014-01-01 12:50:00,
2014-01-01 07:55:00,18.5,10.4,30.33,North,360,7.1,11.5,70,0.00,OVC,,0.00,WeatherDisplay:10.37,2014-01-01 12:55:00,
2014-01-01 08:00:00,18.4,10.6,30.33,North,360,7.2,15.0,71,0.00,OVC,,0.00,WeatherDisplay:10.37,2014-01-01 13:00:00,
2014-01-01 08:05:00,18.4,10.6,30.33,North,360,1.9,4.6,71,0.00,OVC,,0.00,WeatherDisplay:10.37,2014-01-01 13:05:00,
2014-01-01 08:10:00,18.4,10.6,30.34,North,360,5.8,11.5,71,0.00,OVC,,0.00,WeatherDisplay:10.37,2014-01-01 13:10:00,
2014-01-01 08:15:00,18.4,10.9,30.34,North,360,8.3,18.4,72,0.00,OVC,,0.00,WeatherDisplay:10.37,2014-01-01 13:15:00,
2014-01-01 08:20:00,18.4,10.9,30.35,North,360,11.2,19.6,72,0.00,OVC,,0.00,WeatherDisplay:10.37,2014-01-01 13:20:00,
2014-01-01 08:25:00,18.4,10.9,30.35,North,360,10.5,13.8,72,0.00,OVC,,0.00,WeatherDisplay:10.37,2014-01-01 13:25:00,
2014-01-01 08:30:00,18.4,10.9,30.35,North,360,8.6,15.0,72,0.00,OVC,,0.00,WeatherDisplay:10.37,2014-01-01 13:30:00,
2014-01-01 08:35:00,18.4,11.2,30.35,North,360,9.3,19.6,73,0.00,OVC,,0.00,WeatherDisplay:10.37,2014-01-01 13:35:00,
2014-01-01 08:40:00,18.3,11.1,30.35,North,360,10.4,16.1,73,0.00,OVC,,0.00,WeatherDisplay:10.37,2014-01-01 13:40:00,
2014-01-01 08:45:00,18.3,11.1,30.35,North,360,12.2,18.4,73,0.00,OVC,,0.00,WeatherDisplay:10.37,2014-01-01 13:45:00,
2014-01-01 08:50:00,18.3,11.4,30.36,North,360,12.9,16.1,74,0.00,OVC,,0.00,WeatherDisplay:10.37,2014-01-01 13:50:00,
2014-01-01 08:55:00,18.3,11.7,30.36,North,360,9.0,11.5,75,0.00,OVC,,0.00,WeatherDisplay:10.37,2014-01-01 13:55:00,
2014-01-01 09:00:00,18.2,11.9,30.35,North,360,6.0,10.0,76,0.00,OVC,,0.00,WeatherDisplay:10.37,2014-01-01 14:00:00,
2014-01-01 09:05:00,18.2,11.6,30.36,North,360,5.0,10.4,75,0.00,-SN,,0.00,WeatherDisplay:10.37,2014-01-01 14:05:00,
2014-01-01 09:10:00,18.3,11.7,30.36,North,360,2.7,6.0,75,0.00,-SN,,0.00,WeatherDisplay:10.37,2014-01-01 14:10:00,
2014-01-01 09:15:00,18.4,12.1,30.36,North,360,5.2,10.4,76,0.00,-SN,,0.00,WeatherDisplay:10.37,2014-01-01 14:15:00,
2014-01-01 09:20:00,18.5,12.2,30.36,North,360,4.7,9.2,76,0.00,-SN,,0.00,WeatherDisplay:10.37,2014-01-01 14:20:00,
2014-01-01 09:25:00,18.5,12.2,30.37,North,360,5.7,11.5,76,0.00,-SN,,0.00,WeatherDisplay:10.37,2014-01-01 14:25:00,
2014-01-01 09:30:00,18.5,12.5,30.37,North,360,7.1,9.2,77,0.00,-SN,,0.00,WeatherDisplay:10.37,2014-01-01 14:30:00,
2014-01-01 09:35:00,18.5,12.2,30.38,North,360,9.1,15.0,76,0.00,-SN,,0.00,WeatherDisplay:10.37,2014-01-01 14:35:00,
2014-01-01 09:40:00,18.5,12.2,30.38,North,360,7.7,9.2,76,0.00,-SN,,0.00,WeatherDisplay:10.37,2014-01-01 14:40:00,
2014-01-01 09:45:00,18.5,12.2,30.38,North,360,8.5,15.0,76,0.00,-SN,,0.00,WeatherDisplay:10.37,2014-01-01 14:45:00,
2014-01-01 09:50:00,18.4,12.1,30.39,North,360,9.4,13.8,76,0.00,-SN,,0.00,WeatherDisplay:10.37,2014-01-01 14:50:00,
2014-01-01 09:55:00,18.4,12.7,30.39,North,360,10.1,12.7,78,0.00,-SN,,0.00,WeatherDisplay:10.37,2014-01-01 14:55:00,
2014-01-01 10:00:00,18.3,13.2,30.40,North,360,1.7,8.1,80,0.00,-SN,,0.00,WeatherDisplay:10.37,2014-01-01 15:00:00,
2014-01-01 10:05:00,18.2,13.9,30.40,North,360,2.6,9.2,83,0.00,OVC,,0.00,WeatherDisplay:10.37,2014-01-01 15:05:00,
2014-01-01 10:10:00,17.9,14.2,30.40,North,360,5.0,6.9,85,0.00,OVC,,0.00,WeatherDisplay:10.37,2014-01-01 15:10:00,
2014-01-01 10:15:00,17.7,14.3,30.40,North,360,2.1,5.0,86,0.00,OVC,,0.00,WeatherDisplay:10.37,2014-01-01 15:15:00,
2014-01-01 10:20:00,17.5,14.1,30.40,North,360,1.4,4.6,86,0.00,OVC,,0.00,WeatherDisplay:10.37,2014-01-01 15:20:00,
2014-01-01 10:25:00,17.4,14.2,30.40,North,360,3.5,3.5,87,0.00,OVC,,0.00,WeatherDisplay:10.37,2014-01-01 15:25:00,
2014-01-01 10:30:00,17.2,14.0,30.40,North,360,0.7,2.0,87,0.00,OVC,,0.00,WeatherDisplay:10.37,2014-01-01 15:30:00,
2014-01-01 10:35:00,17.2,14.0,30.41,North,360,0.9,3.5,87,0.00,OVC,,0.00,WeatherDisplay:10.37,2014-01-01 15:35:00,
2014-01-01 10:40:00,17.2,14.3,30.40,North,360,3.3,4.6,88,0.00,OVC,,0.00,WeatherDisplay:10.37,2014-01-01 15:40:00,
2014-01-01 10:45:00,17.4,14.5,30.40,North,360,0.0,0.0,88,0.00,OVC,,0.00,WeatherDisplay:10.37,2014-01-01 15:45:00,
2014-01-01 10:50:00,17.5,14.6,30.40,North,360,1.5,6.9,88,0.00,OVC,,0.00,WeatherDisplay:10.37,2014-01-01 15:50:00,
2014-01-01 10:55:00,17.4,14.2,30.40,North,360,5.0,6.9,87,0.00,OVC,,0.00,WeatherDisplay:10.37,2014-01-01 15:55:00,
2014-01-01 11:00:00,17.2,14.0,30.40,North,360,4.9,8.1,87,0.00,OVC,,0.00,WeatherDisplay:10.37,2014-01-01 16:00:00,
2014-01-01 11:05:00,17.1,13.7,30.39,North,360,2.6,8.1,86,0.00,OVC,,0.00,WeatherDisplay:10.37,2014-01-01 16:05:00,
2014-01-01 11:10:00,17.2,13.8,30.39,North,360,4.0,6.9,86,0.00,OVC,,0.00,WeatherDisplay:10.37,2014-01-01 16:10:00,
2014-01-01 11:15:00,17.3,13.6,30.39,North,360,4.6,8.1,85,0.00,OVC,,0.00,WeatherDisplay:10.37,2014-01-01 16:15:00,
2014-01-01 11:20:00,17.3,13.6,30.39,North,360,5.3,6.9,85,0.00,OVC,,0.00,WeatherDisplay:10.37,2014-01-01 16:20:00,
2014-01-01 11:25:00,17.3,13.3,30.39,North,360,1.5,6.9,84,0.00,OVC,,0.00,WeatherDisplay:10.37,2014-01-01 16:25:00,
2014-01-01 11:30:00,17.4,13.4,30.39,North,360,1.0,3.5,84,0.00,OVC,,0.00,WeatherDisplay:10.37,2014-01-01 16:30:00,
2014-01-01 11:35:00,17.4,13.2,30.38,North,360,3.7,4.6,83,0.00,OVC,,0.00,WeatherDisplay:10.37,2014-01-01 16:35:00,
2014-01-01 11:40:00,17.4,13.4,30.38,North,360,0.1,2.3,84,0.00,OVC,,0.00,WeatherDisplay:10.37,2014-01-01 16:40:00,
2014-01-01 11:45:00,17.2,13.2,30.38,North,360,1.1,3.5,84,0.00,OVC,,0.00,WeatherDisplay:10.37,2014-01-01 16:45:00,
2014-01-01 11:50:00,17.2,13.2,30.38,North,360,0.0,1.1,84,0.00,OVC,,0.00,WeatherDisplay:10.37,2014-01-01 16:50:00,
2014-01-01 11:55:00,17.3,13.3,30.38,North,360,2.2,3.5,84,0.00,OVC,,0.00,WeatherDisplay:10.37,2014-01-01 16:55:00,
2014-01-01 12:00:00,17.4,13.4,30.38,North,360,1.8,5.0,84,0.00,OVC,,0.00,WeatherDisplay:10.37,2014-01-01 17:00:00,
2014-01-01 12:05:00,17.5,13.3,30.38,North,360,1.0,3.5,83,0.00,OVC,,0.00,WeatherDisplay:10.37,2014-01-01 17:05:00,
2014-01-01 12:10:00,17.7,13.7,30.37,North,360,0.9,3.5,84,0.00,OVC,,0.00,WeatherDisplay:10.37,2014-01-01 17:10:00,
2014-01-01 12:15:00,17.9,13.4,30.37,North,360,3.0,3.5,82,0.00,OVC,,0.00,WeatherDisplay:10.37,2014-01-01 17:15:00,
2014-01-01 12:20:00,18.0,13.5,30.37,North,360,2.2,3.5,82,0.00,OVC,,0.00,WeatherDisplay:10.37,2014-01-01 17:20:00,
2014-01-01 12:25:00,18.2,13.4,30.37,North,360,0.6,2.3,81,0.00,OVC,,0.00,WeatherDisplay:10.37,2014-01-01 17:25:00,
2014-01-01 12:30:00,18.3,13.5,30.38,North,360,0.0,0.0,81,0.00,OVC,,0.00,WeatherDisplay:10.37,2014-01-01 17:30:00,
2014-01-01 12:35:00,18.3,12.9,30.38,North,360,1.9,3.5,79,0.00,OVC,,0.00,WeatherDisplay:10.37,2014-01-01 17:35:00,
2014-01-01 12:40:00,18.1,12.7,30.37,North,360,0.0,0.0,79,0.00,OVC,,0.00,WeatherDisplay:10.37,2014-01-01 17:40:00,
2014-01-01 12:45:00,18.0,12.6,30.37,North,360,0.0,0.0,79,0.00,OVC,,0.00,WeatherDisplay:10.37,2014-01-01 17:45:00,
2014-01-01 12:50:00,17.7,12.0,30.38,North,360,0.0,0.0,78,0.00,OVC,,0.00,WeatherDisplay:10.37,2014-01-01 17:50:00,
2014-01-01 12:55:00,17.8,12.4,30.37,North,360,0.2,3.0,79,0.00,OVC,,0.00,WeatherDisplay:10.37,2014-01-01 17:55:00,
2014-01-01 13:00:00,18.0,12.3,30.37,North,360,1.2,3.5,78,0.00,OVC,,0.00,WeatherDisplay:10.37,2014-01-01 18:00:00,
2014-01-01 13:05:00,18.0,12.3,30.37,North,360,0.0,0.0,78,0.00,OVC,,0.00,WeatherDisplay:10.37,2014-01-01 18:05:00,
2014-01-01 13:10:00,18.0,12.6,30.38,North,360,0.0,0.0,79,0.00,OVC,,0.00,WeatherDisplay:10.37,2014-01-01 18:10:00,
2014-01-01 13:15:00,18.0,12.6,30.39,North,360,1.1,3.5,79,0.00,OVC,,0.00,WeatherDisplay:10.37,2014-01-01 18:15:00,
2014-01-01 13:20:00,17.8,12.7,30.38,North,360,0.5,3.5,80,0.00,OVC,,0.00,WeatherDisplay:10.37,2014-01-01 18:20:00,
2014-01-01 13:25:00,17.6,12.8,30.38,North,360,0.0,3.5,81,0.00,OVC,,0.00,WeatherDisplay:10.37,2014-01-01 18:25:00,
2014-01-01 13:30:00,17.5,13.0,30.38,North,360,0.0,0.0,82,0.00,OVC,,0.00,WeatherDisplay:10.37,2014-01-01 18:30:00,
2014-01-01 13:35:00,17.4,13.2,30.38,North,360,0.0,2.3,83,0.00,OVC,,0.00,WeatherDisplay:10.37,2014-01-01 18:35:00,
2014-01-01 13:40:00,17.5,13.3,30.38,North,360,0.0,0.0,83,0.00,OVC,,0.00,WeatherDisplay:10.37,2014-01-01 18:40:00,
2014-01-01 13:45:00,17.8,13.8,30.38,North,360,0.4,3.5,84,0.00,OVC,,0.00,WeatherDisplay:10.37,2014-01-01 18:45:00,
2014-01-01 13:50:00,18.2,13.9,30.37,North,360,0.1,3.5,83,0.00,OVC,,0.00,WeatherDisplay:10.37,2014-01-01 18:50:00,
2014-01-01 13:55:00,18.3,13.5,30.38,North,360,3.2,4.0,81,0.00,OVC,,0.00,WeatherDisplay:10.37,2014-01-01 18:55:00,
2014-01-01 14:00:00,18.2,13.4,30.38,North,360,0.8,3.5,81,0.00,OVC,,0.00,WeatherDisplay:10.37,2014-01-01 19:00:00,
2014-01-01 14:05:00,18.3,13.5,30.38,North,360,1.3,2.0,81,0.00,-SN,,0.00,WeatherDisplay:10.37,2014-01-01 19:05:00,
2014-01-01 14:10:00,18.6,13.5,30.38,North,360,0.8,4.0,80,0.00,-SN,,0.00,WeatherDisplay:10.37,2014-01-01 19:10:00,
2014-01-01 14:15:00,18.9,13.5,30.38,North,360,1.5,3.5,79,0.00,-SN,,0.00,WeatherDisplay:10.37,2014-01-01 19:15:00,
2014-01-01 14:20:00,19.1,13.4,30.38,North,360,2.0,3.5,78,0.00,-SN,,0.00,WeatherDisplay:10.37,2014-01-01 19:20:00,
2014-01-01 14:25:00,19.2,13.2,30.38,North,360,1.9,5.0,77,0.00,-SN,,0.00,WeatherDisplay:10.37,2014-01-01 19:25:00,
2014-01-01 14:30:00,19.1,13.1,30.38,North,360,1.9,3.5,77,0.00,-SN,,0.00,WeatherDisplay:10.37,2014-01-01 19:30:00,
2014-01-01 14:35:00,18.9,13.2,30.38,North,360,0.0,0.0,78,0.00,-SN,,0.00,WeatherDisplay:10.37,2014-01-01 19:35:00,
2014-01-01 14:40:00,19.3,13.6,30.38,North,360,0.0,0.0,78,0.00,-SN,,0.00,WeatherDisplay:10.37,2014-01-01 19:40:00,
2014-01-01 14:45:00,19.4,13.4,30.38,North,360,1.9,3.5,77,0.00,-SN,,0.00,WeatherDisplay:10.37,2014-01-01 19:45:00,
2014-01-01 14:50:00,19.1,12.5,30.38,North,360,0.0,0.0,75,0.00,-SN,,0.00,WeatherDisplay:10.37,2014-01-01 19:50:00,
2014-01-01 14:55:00,18.6,12.0,30.38,North,360,0.8,3.0,75,0.00,-SN,,0.00,WeatherDisplay:10.37,2014-01-01 19:55:00,
2014-01-01 15:00:00,18.2,11.9,30.38,North,360,0.5,3.5,76,0.00,-SN,,0.00,WeatherDisplay:10.37,2014-01-01 20:00:00,
2014-01-01 15:05:00,18.0,12.0,30.38,North,360,0.0,0.0,77,0.00,OVC,,0.00,WeatherDisplay:10.37,2014-01-01 20:05:00,
2014-01-01 15:10:00,17.8,11.8,30.38,North,360,0.0,0.0,77,0.00,OVC,,0.00,WeatherDisplay:10.37,2014-01-01 20:10:00,
2014-01-01 15:15:00,17.6,11.7,30.38,North,360,0.0,0.0,77,0.00,OVC,,0.00,WeatherDisplay:10.37,2014-01-01 20:15:00,
2014-01-01 15:20:00,17.5,11.3,30.39,North,360,0.0,0.0,76,0.00,OVC,,0.00,WeatherDisplay:10.37,2014-01-01 20:20:00,
2014-01-01 15:25:00,17.4,11.5,30.39,North,360,0.0,0.0,77,0.00,OVC,,0.00,WeatherDisplay:10.37,2014-01-01 20:25:00,
2014-01-01 15:30:00,17.4,11.5,30.39,North,360,0.0,0.0,77,0.00,OVC,,0.00,WeatherDisplay:10.37,2014-01-01 20:30:00,
2014-01-01 15:35:00,17.3,11.4,30.39,North,360,0.0,0.0,77,0.00,OVC,,0.00,WeatherDisplay:10.37,2014-01-01 20:35:00,
2014-01-01 15:40:00,17.2,11.0,30.39,North,360,0.0,0.0,76,0.00,OVC,,0.00,WeatherDisplay:10.37,2014-01-01 20:40:00,
2014-01-01 15:45:00,17.0,11.1,30.39,North,360,0.0,0.0,77,0.00,OVC,,0.00,WeatherDisplay:10.37,2014-01-01 20:45:00,
2014-01-01 15:50:00,16.9,11.0,30.39,North,360,0.0,0.0,77,0.00,OVC,,0.00,WeatherDisplay:10.37,2014-01-01 20:50:00,
2014-01-01 15:55:00,16.9,11.3,30.39,North,360,0.4,2.3,78,0.00,OVC,,0.00,WeatherDisplay:10.37,2014-01-01 20:55:00,
2014-01-01 16:00:00,16.8,11.2,30.39,North,360,0.0,0.0,78,0.00,OVC,,0.00,WeatherDisplay:10.37,2014-01-01 21:00:00,
2014-01-01 16:05:00,16.8,10.9,30.39,North,360,0.0,0.0,77,0.00,OVC,,0.00,WeatherDisplay:10.37,2014-01-01 21:05:00,
2014-01-01 16:10:00,16.8,10.9,30.39,North,360,0.0,0.0,77,0.00,OVC,,0.00,WeatherDisplay:10.37,2014-01-01 21:10:00,
2014-01-01 16:15:00,16.6,11.0,30.39,North,360,0.0,0.0,78,0.00,OVC,,0.00,WeatherDisplay:10.37,2014-01-01 21:15:00,
2014-01-01 16:20:00,16.4,10.8,30.39,North,360,0.0,0.0,78,0.00,OVC,,0.00,WeatherDisplay:10.37,2014-01-01 21:20:00,
2014-01-01 16:25:00,16.2,10.6,30.38,North,360,0.0,0.0,78,0.00,OVC,,0.00,WeatherDisplay:10.37,2014-01-01 21:25:00,
2014-01-01 16:30:00,16.1,10.5,30.38,North,360,0.0,0.0,78,0.00,OVC,,0.00,WeatherDisplay:10.37,2014-01-01 21:30:00,
2014-01-01 16:35:00,16.0,10.7,30.38,North,360,0.0,0.0,79,0.00,OVC,,0.00,WeatherDisplay:10.37,2014-01-01 21:35:00,
2014-01-01 16:40:00,15.9,10.6,30.38,North,360,0.0,0.0,79,0.00,OVC,,0.00,WeatherDisplay:10.37,2014-01-01 21:40:00,
2014-01-01 16:45:00,15.7,10.4,30.38,North,360,0.0,0.0,79,0.00,OVC,,0.00,WeatherDisplay:10.37,2014-01-01 21:45:00,
2014-01-01 16:50:00,15.6,10.3,30.38,North,360,0.0,0.0,79,0.00,OVC,,0.00,WeatherDisplay:10.37,2014-01-01 21:50:00,
2014-01-01 16:55:00,15.4,10.1,30.38,North,360,0.0,0.0,79,0.00,OVC,,0.00,WeatherDisplay:10.37,2014-01-01 21:55:00,
2014-01-01 17:00:00,15.4,10.4,30.38,North,360,0.0,0.0,80,0.00,OVC,,0.00,WeatherDisplay:10.37,2014-01-01 22:00:00,
2014-01-01 17:05:00,15.3,10.0,30.38,North,360,0.0,0.0,79,0.00,OVC,,0.00,WeatherDisplay:10.37,2014-01-01 22:05:00,
2014-01-01 17:10:00,15.3,10.3,30.38,North,360,0.0,0.0,80,0.00,OVC,,0.00,WeatherDisplay:10.37,2014-01-01 22:10:00,
2014-01-01 17:15:00,15.1,10.1,30.38,North,360,0.0,0.0,80,0.00,OVC,,0.00,WeatherDisplay:10.37,2014-01-01 22:15:00,
2014-01-01 17:20:00,15.1,10.4,30.38,North,360,0.0,0.0,81,0.00,OVC,,0.00,WeatherDisplay:10.37,2014-01-01 22:20:00,
2014-01-01 17:25:00,15.1,10.4,30.38,North,360,0.0,0.0,81,0.00,OVC,,0.00,WeatherDisplay:10.37,2014-01-01 22:25:00,
2014-01-01 17:30:00,15.0,10.0,30.39,North,360,0.0,0.0,80,0.00,OVC,,0.00,WeatherDisplay:10.37,2014-01-01 22:30:00,
2014-01-01 17:35:00,15.0,10.0,30.39,North,360,0.0,0.0,80,0.00,OVC,,0.00,WeatherDisplay:10.37,2014-01-01 22:35:00,
2014-01-01 17:40:00,15.0,10.5,30.39,North,360,0.0,0.0,82,0.00,OVC,,0.00,WeatherDisplay:10.37,2014-01-01 22:40:00,
2014-01-01 17:45:00,15.0,10.5,30.39,North,360,0.0,0.0,82,0.00,OVC,,0.00,WeatherDisplay:10.37,2014-01-01 22:45:00,
2014-01-01 17:50:00,15.0,10.8,30.39,North,360,0.0,0.0,83,0.00,OVC,,0.00,WeatherDisplay:10.37,2014-01-01 22:50:00,
2014-01-01 17:55:00,14.9,10.7,30.39,North,360,0.0,0.0,83,0.00,OVC,,0.00,WeatherDisplay:10.37,2014-01-01 22:55:00,
2014-01-01 18:00:00,14.9,10.7,30.39,North,360,0.0,0.0,83,0.00,OVC,,0.00,WeatherDisplay:10.37,2014-01-01 23:00:00,
2014-01-01 18:05:00,14.9,10.7,30.39,North,360,0.0,0.0,83,0.00,OVC,,0.00,WeatherDisplay:10.37,2014-01-01 23:05:00,
2014-01-01 18:10:00,14.9,10.7,30.39,North,360,0.0,0.0,83,0.00,OVC,,0.00,WeatherDisplay:10.37,2014-01-01 23:10:00,
2014-01-01 18:15:00,15.0,11.1,30.39,North,360,0.0,2.3,84,0.00,OVC,,0.00,WeatherDisplay:10.37,2014-01-01 23:15:00,
2014-01-01 18:20:00,15.1,10.9,30.39,North,360,0.0,0.0,83,0.00,OVC,,0.00,WeatherDisplay:10.37,2014-01-01 23:20:00,
2014-01-01 18:25:00,15.2,11.0,30.39,North,360,0.4,3.0,83,0.00,OVC,,0.00,WeatherDisplay:10.37,2014-01-01 23:25:00,
2014-01-01 18:30:00,15.2,11.0,30.39,North,360,0.0,0.0,83,0.00,OVC,,0.00,WeatherDisplay:10.37,2014-01-01 23:30:00,
2014-01-01 18:35:00,15.3,10.8,30.39,North,360,0.9,3.5,82,0.00,OVC,,0.00,WeatherDisplay:10.37,2014-01-01 23:35:00,
2014-01-01 18:40:00,15.2,10.5,30.39,North,360,0.0,3.5,81,0.00,OVC,,0.00,WeatherDisplay:10.37,2014-01-01 23:40:00,
2014-01-01 18:45:00,15.1,10.1,30.40,North,360,0.0,0.0,80,0.00,OVC,,0.00,WeatherDisplay:10.37,2014-01-01 23:45:00,
2014-01-01 18:50:00,15.1,10.1,30.40,North,360,0.0,0.0,80,0.00,OVC,,0.00,WeatherDisplay:10.37,2014-01-01 23:50:00,
2014-01-01 18:55:00,15.1,10.1,30.40,North,360,0.0,0.0,80,0.00,OVC,,0.00,WeatherDisplay:10.37,2014-01-01 23:55:00,
2014-01-01 19:00:00,15.0,10.0,30.40,North,360,0.3,0.0,80,0.00,OVC,,0.00,WeatherDisplay:10.37,2014-01-02 00:00:00,
2014-01-01 19:05:00,15.0,10.3,30.40,North,360,0.6,2.3,81,0.00,OVC,,0.00,WeatherDisplay:10.37,2014-01-02 00:05:00,
2014-01-01 19:11:00,14.9,9.9,30.40,North,360,0.0,0.0,80,0.00,OVC,,0.00,WeatherDisplay:10.37,2014-01-02 00:11:00,
2014-01-01 19:16:00,14.8,9.8,30.40,North,360,1.5,3.5,80,0.00,OVC,,0.00,WeatherDisplay:10.37,2014-01-02 00:16:00,
2014-01-01 19:21:00,14.7,9.7,30.40,North,360,0.0,0.0,80,0.00,OVC,,0.00,WeatherDisplay:10.37,2014-01-02 00:21:00,
2014-01-01 19:26:00,14.6,9.6,30.40,North,360,0.0,0.0,80,0.00,OVC,,0.00,WeatherDisplay:10.37,2014-01-02 00:26:00,
2014-01-01 19:31:00,14.5,9.5,30.40,North,360,0.0,0.0,80,0.00,OVC,,0.00,WeatherDisplay:10.37,2014-01-02 00:31:00,
2014-01-01 19:36:00,14.4,9.4,30.40,North,360,1.6,3.5,80,0.00,OVC,,0.00,WeatherDisplay:10.37,2014-01-02 00:36:00,
2014-01-01 19:41:00,14.3,9.3,30.40,North,360,0.0,0.0,80,0.00,OVC,,0.00,WeatherDisplay:10.37,2014-01-02 00:41:00,
2014-01-01 19:46:00,14.3,9.3,30.39,North,360,0.0,0.0,80,0.00,OVC,,0.00,WeatherDisplay:10.37,2014-01-02 00:46:00,
2014-01-01 19:51:00,14.2,9.5,30.39,North,360,0.5,2.3,81,0.00,OVC,,0.00,WeatherDisplay:10.37,2014-01-02 00:51:00,
2014-01-01 19:56:00,14.1,9.7,30.39,North,360,1.5,4.6,82,0.00,OVC,,0.00,WeatherDisplay:10.37,2014-01-02 00:56:00,
2014-01-01 20:01:00,14.0,9.6,30.39,North,360,0.8,3.5,82,0.00,OVC,,0.00,WeatherDisplay:10.37,2014-01-02 01:01:00,
2014-01-01 20:06:00,14.0,9.8,30.39,North,360,0.0,0.0,83,0.00,OVC,,0.00,WeatherDisplay:10.37,2014-01-02 01:06:00,
2014-01-01 20:11:00,14.0,9.8,30.39,North,360,0.6,1.0,83,0.00,OVC,,0.00,WeatherDisplay:10.37,2014-01-02 01:11:00,
2014-01-01 20:16:00,13.9,9.5,30.39,North,360,0.0,0.0,82,0.00,OVC,,0.00,WeatherDisplay:10.37,2014-01-02 01:16:00,
2014-01-01 20:21:00,13.8,9.1,30.39,North,360,0.0,0.0,81,0.00,OVC,,0.00,WeatherDisplay:10.37,2014-01-02 01:21:00,
2014-01-01 20:26:00,13.7,9.0,30.39,North,360,0.0,0.0,81,0.00,OVC,,0.00,WeatherDisplay:10.37,2014-01-02 01:26:00,
2014-01-01 20:31:00,13.6,8.9,30.40,North,360,0.0,0.0,81,0.00,OVC,,0.00,WeatherDisplay:10.37,2014-01-02 01:31:00,
2014-01-01 20:36:00,13.5,8.5,30.40,North,360,0.0,0.0,80,0.00,OVC,,0.00,WeatherDisplay:10.37,2014-01-02 01:36:00,
2014-01-01 20:41:00,13.5,8.5,30.40,North,360,0.0,0.0,80,0.00,OVC,,0.00,WeatherDisplay:10.37,2014-01-02 01:41:00,
2014-01-01 20:46:00,13.5,8.5,30.39,North,360,0.0,0.0,80,0.00,OVC,,0.00,WeatherDisplay:10.37,2014-01-02 01:46:00,
2014-01-01 20:51:00,13.4,8.4,30.39,North,360,0.0,0.0,80,0.00,OVC,,0.00,WeatherDisplay:10.37,2014-01-02 01:51:00,
2014-01-01 20:56:00,13.4,8.4,30.39,North,360,0.0,0.0,80,0.00,OVC,,0.00,WeatherDisplay:10.37,2014-01-02 01:56:00,
2014-01-01 21:01:00,13.4,8.4,30.39,North,360,0.0,0.0,80,0.00,OVC,,0.00,WeatherDisplay:10.37,2014-01-02 02:01:00,
2014-01-01 21:06:00,13.4,8.4,30.39,North,360,0.0,0.0,80,0.00,-SN,,0.00,WeatherDisplay:10.37,2014-01-02 02:06:00,
2014-01-01 21:11:00,13.4,8.4,30.39,North,360,0.0,0.0,80,0.00,-SN,,0.00,WeatherDisplay:10.37,2014-01-02 02:11:00,
2014-01-01 21:16:00,13.4,8.4,30.39,North,360,0.0,0.0,80,0.00,-SN,,0.00,WeatherDisplay:10.37,2014-01-02 02:16:00,
2014-01-01 21:21:00,13.4,8.4,30.39,North,360,0.0,0.0,80,0.00,-SN,,0.00,WeatherDisplay:10.37,2014-01-02 02:21:00,
2014-01-01 21:26:00,13.4,8.4,30.39,North,360,0.0,0.0,80,0.00,-SN,,0.00,WeatherDisplay:10.37,2014-01-02 02:26:00,
2014-01-01 21:31:00,13.3,8.0,30.39,North,360,0.0,0.0,79,0.00,-SN,,0.00,WeatherDisplay:10.37,2014-01-02 02:31:00,
2014-01-01 21:36:00,13.3,8.0,30.38,North,360,0.0,0.0,79,0.00,-SN,,0.00,WeatherDisplay:10.37,2014-01-02 02:36:00,
2014-01-01 21:41:00,13.3,8.0,30.38,North,360,0.0,0.0,79,0.00,-SN,,0.00,WeatherDisplay:10.37,2014-01-02 02:41:00,
2014-01-01 21:46:00,13.2,8.2,30.38,North,360,0.0,0.0,80,0.00,-SN,,0.00,WeatherDisplay:10.37,2014-01-02 02:46:00,
2014-01-01 21:51:00,13.2,8.5,30.38,North,360,0.0,0.0,81,0.00,-SN,,0.00,WeatherDisplay:10.37,2014-01-02 02:51:00,
2014-01-01 21:56:00,13.2,8.5,30.38,North,360,0.0,0.0,81,0.00,-SN,,0.00,WeatherDisplay:10.37,2014-01-02 02:56:00,
2014-01-01 22:01:00,13.1,8.4,30.38,North,360,0.0,0.0,81,0.00,-SN,,0.00,WeatherDisplay:10.37,2014-01-02 03:01:00,
2014-01-01 22:06:00,13.0,8.6,30.38,North,360,0.0,0.0,82,0.00,-SN,,0.00,WeatherDisplay:10.37,2014-01-02 03:06:00,
2014-01-01 22:11:00,13.0,8.8,30.38,North,360,0.0,0.0,83,0.00,-SN,,0.00,WeatherDisplay:10.37,2014-01-02 03:11:00,
2014-01-01 22:16:00,13.0,8.8,30.38,North,360,0.0,0.0,83,0.00,-SN,,0.00,WeatherDisplay:10.37,2014-01-02 03:16:00,
2014-01-01 22:21:00,13.0,9.1,30.38,North,360,0.0,0.0,84,0.00,-SN,,0.00,WeatherDisplay:10.37,2014-01-02 03:21:00,
2014-01-01 22:26:00,12.9,9.0,30.38,North,360,0.0,0.0,84,0.00,-SN,,0.00,WeatherDisplay:10.37,2014-01-02 03:26:00,
2014-01-01 22:31:00,12.9,9.3,30.37,North,360,0.0,0.0,85,0.00,-SN,,0.00,WeatherDisplay:10.37,2014-01-02 03:31:00,
2014-01-01 22:36:00,12.9,9.3,30.38,North,360,0.0,0.0,85,0.00,-SN,,0.00,WeatherDisplay:10.37,2014-01-02 03:36:00,
2014-01-01 22:41:00,12.9,9.3,30.38,North,360,0.4,3.5,85,0.00,-SN,,0.00,WeatherDisplay:10.37,2014-01-02 03:41:00,
2014-01-01 22:46:00,12.9,9.3,30.37,North,360,0.0,0.0,85,0.00,-SN,,0.00,WeatherDisplay:10.37,2014-01-02 03:46:00,
2014-01-01 22:51:00,12.9,9.5,30.37,North,360,1.9,3.5,86,0.00,-SN,,0.00,WeatherDisplay:10.37,2014-01-02 03:51:00,
2014-01-01 22:56:00,12.9,9.5,30.37,North,360,0.0,0.0,86,0.00,-SN,,0.00,WeatherDisplay:10.37,2014-01-02 03:56:00,
2014-01-01 23:01:00,12.9,9.5,30.36,North,360,1.1,4.6,86,0.00,-SN,,0.00,WeatherDisplay:10.37,2014-01-02 04:01:00,
2014-01-01 23:06:00,12.9,9.5,30.36,North,360,0.9,3.0,86,0.00,-SN,,0.00,WeatherDisplay:10.37,2014-01-02 04:06:00,
2014-01-01 23:11:00,12.9,9.5,30.36,North,360,0.0,1.1,86,0.00,-SN,,0.00,WeatherDisplay:10.37,2014-01-02 04:11:00,
2014-01-01 23:16:00,12.8,9.4,30.36,North,360,2.0,5.8,86,0.00,-SN,,0.00,WeatherDisplay:10.37,2014-01-02 04:16:00,
2014-01-01 23:21:00,12.7,9.6,30.36,North,360,3.5,6.9,87,0.00,-SN,,0.00,WeatherDisplay:10.37,2014-01-02 04:21:00,
2014-01-01 23:26:00,12.7,9.6,30.36,North,360,1.1,5.0,87,0.00,-SN,,0.00,WeatherDisplay:10.37,2014-01-02 04:26:00,
2014-01-01 23:31:00,12.7,9.6,30.36,North,360,1.3,1.3,87,0.00,-SN,,0.00,WeatherDisplay:10.37,2014-01-02 04:31:00,
2014-01-01 23:36:00,12.7,9.9,30.35,North,360,0.6,0.0,88,0.00,-SN,,0.00,WeatherDisplay:10.37,2014-01-02 04:36:00,
2014-01-01 23:41:00,12.6,9.5,30.35,North,360,0.4,2.3,87,0.00,-SN,,0.00,WeatherDisplay:10.37,2014-01-02 04:41:00,
2014-01-01 23:46:00,12.5,9.4,30.35,North,360,0.7,4.0,87,0.00,-SN,,0.00,WeatherDisplay:10.37,2014-01-02 04:46:00,
2014-01-01 23:51:00,12.4,9.6,30.35,North,360,2.5,3.5,88,0.00,-SN,,0.00,WeatherDisplay:10.37,2014-01-02 04:51:00,
2014-01-01 23:56:00,12.3,9.5,30.35,North,360,0.0,0.0,88,0.00,-SN,,0.00,WeatherDisplay:10.37,2014-01-02 04:56:00,